Location: Mahkeenac Shores
(42.3309°N, 73.3143°W)
Time: 00:38:10
(UTC+00:00)

Daily predictions for brighter satellites

Satellite Brightness Start Highest point End
(mag) Time Altitude Azimuth Time Altitude Azimuth Time Altitude Azimuth
Cosmos 2360 Rocket 4.2 01:01:22 10° N 01:04:44 16° NE 01:08:05 10° E
Cosmos 1842 3.2 01:02:28 10° S 01:06:01 53° E 01:09:35 10° NNE
Centaur D AC-29 3.8 01:01:28 10° SW 01:06:31 30° SSE 01:24:22 10° ESE
Cosmos 407 Rocket 4.3 01:02:19 10° SW 01:07:26 57° WNW 01:12:32 10° NNE
Cosmos 540 Rocket 3.8 01:03:59 10° N 01:09:02 52° ENE 01:14:02 10° SE
BREEZE-M DEB (TANK) 1.9 01:09:42 10° SW 01:11:59 75° SSE 01:14:44 10° ENE
BREEZE-M DEB (TANK) 4.2 00:56:54 10° WSW 01:13:00 69° NW 01:16:53 10° NE
MOS 1-B Rocket 4.3 01:08:11 10° S 01:14:24 70° WSW 01:20:04 10° NNW
SL-16 R/B 3.2 01:10:59 10° N 01:16:07 34° ENE 01:21:13 10° ESE
RESURS DK-1 4.3 01:13:37 10° N 01:16:23 17° NE 01:19:08 10° E
Cosmos 2333 Rocket 4.1 01:13:46 10° N 01:17:41 18° NE 01:21:34 10° E
Cosmos 2082 Rocket 2.9 01:12:05 10° SW 01:17:43 62° WNW 01:23:23 10° NNE
Cosmos 2369 3.9 01:14:22 10° NNW 01:20:07 76° WSW 01:25:49 10° SSE
Cosmos 1954 Rocket 4.0 01:18:49 10° SSW 01:24:06 81° ESE 01:29:24 10° NNE
Atlas Centaur 2 3.7 01:17:39 10° WSW 01:24:45 35° S 01:32:05 10° ESE
Okean-O 2.6 01:22:12 10° SSE 01:26:36 89° WSW 01:31:02 10° NNW
SeaSat 1 3.2 01:22:40 10° SE 01:27:14 41° NE 01:31:49 10° NNW
EXPRESS MD2 3.7 01:24:03 10° WSW 01:27:27 45° NNW 01:29:46 10° NE
Cosmos 1515 Rocket 3.8 01:25:27 10° SSW 01:29:45 71° W 01:34:05 10° N
Cosmos 1707 2.5 01:27:36 10° S 01:31:11 86° E 01:34:49 10° N
Cosmos 676 Rocket 4.0 01:29:48 10° SSW 01:35:06 82° ESE 01:40:27 10° NNE
USA 245 4.0 01:32:54 14° SE 01:35:32 38° ENE 01:39:27 10° N
CZ-4C R/B 3.4 01:32:20 10° NNE 01:36:30 89° ESE 01:40:37 10° SSW
IRS-1A Rocket 4.3 01:31:47 10° SSE 01:37:11 65° ENE 01:42:39 10° N
SPOT 5 2.6 01:35:11 10° SSE 01:39:29 84° ENE 01:43:53 10° NNW
MetOp-B 4.1 01:35:21 10° SSE 01:40:42 85° ENE 01:46:05 10° NNW
Cosmos 1553 Rocket 4.1 01:35:02 10° N 01:41:14 86° W 01:47:31 10° S
Cosmos 2228 Rocket 4.2 01:41:13 15° SE 01:44:09 28° E 01:48:03 10° NNE
S3M 4.3 01:38:24 10° N 01:44:39 55° ENE 01:49:58 14° SSE
Okean O Rocket 3.4 01:43:13 10° SSW 01:47:00 28° W 01:50:48 10° NW
Tiangong -1.1 01:46:13 10° W 01:49:06 32° SSW 01:50:36 20° SSE
Cosmos 1869 Rocket 3.6 01:45:15 10° N 01:49:41 65° E 01:53:12 16° SSE
SL-4 R/B 4.4 01:48:16 10° WNW 01:51:20 22° N 01:54:32 10° NE
Cosmos 1356 Rocket 4.4 01:50:09 18° SE 01:52:30 30° E 01:56:12 10° NNE
Cosmos 2266 Rocket 4.1 01:47:23 10° S 01:53:38 69° E 02:00:00 10° NNE
Meteor 1-22 Rocket 4.4 01:49:16 10° N 01:54:53 63° ENE 01:59:32 16° SSE
ERS-1 Rocket 3.0 01:50:48 15° SSE 01:55:02 75° ENE 02:00:04 10° N
Cosmos 1655 Rocket 4.4 01:49:34 12° SSE 01:55:12 49° E 02:01:19 10° NNE
Cosmos 1400 Rocket 2.7 01:53:37 12° S 01:57:06 64° E 02:00:56 10° NNE
Cosmos 1980 Rocket 3.9 01:52:41 10° NW 01:57:26 28° WSW 02:02:08 10° SSW
Cosmos 841 Rocket 3.7 01:53:01 10° NNW 01:58:15 62° ENE 02:01:57 19° SE
Cosmos 2322 Rocket 2.8 01:53:46 10° NNW 01:59:13 46° ENE 02:03:10 18° SE
Timation 1 Rocket 4.3 01:54:37 10° SSW 02:00:32 71° ESE 02:06:29 10° NNE
USA 234 3.3 01:56:36 10° NE 02:03:10 85° NW 02:09:43 10° SW
ATLAS CENTAUR R/B 1.0 02:02:05 10° SSW 02:05:26 51° ESE 02:08:54 10° NE
Spot 2 Rocket 3.5 02:02:20 18° SSE 02:06:01 71° ENE 02:11:06 10° N
Cosmos 1300 3.2 02:04:28 10° N 02:07:50 38° ENE 02:09:14 26° SE
Cosmos 1441 Rocket 3.8 02:04:45 10° NNW 02:08:15 50° W 02:11:04 15° S
Aureole 3 4.5 02:08:07 22° ESE 02:09:28 27° E 02:13:18 10° NNE
Cosmos 2278 3.8 02:05:18 10° NNW 02:11:00 73° WSW 02:15:10 19° SSE
Meteor 2-10 Rocket 3.7 02:06:18 10° N 02:11:51 66° ENE 02:15:21 22° SSE
Cosmos 1315 Rocket 4.4 02:14:28 18° E 02:15:00 19° E 02:17:48 10° NE
Resurs 01 Rocket 4.5 02:15:13 10° WSW 02:16:21 11° W 02:17:30 10° WNW
Cosmos 1908 4.3 02:13:04 10° NNW 02:16:24 37° W 02:19:19 13° SSW
Cosmos 1953 4.2 02:16:17 10° NE 02:18:33 15° ENE 02:19:31 14° E
Terra 1.9 02:16:11 19° S 02:19:32 74° WSW 02:24:16 10° NNW
Cosmos 1862 Rocket 3.9 02:18:12 26° SSE 02:20:19 48° E 02:24:35 10° NNE
Cosmos 2219 Rocket 3.4 02:19:48 10° N 02:24:48 31° NE 02:28:14 17° ESE
Landsat 5 3.6 02:24:03 10° NNE 02:28:01 54° E 02:29:45 31° SSE
Ariane Rocket 3.1 02:27:25 22° S 02:30:44 74° WSW 02:35:51 10° NNW
Okean 3 3.6 02:32:22 34° SSE 02:33:51 53° E 02:37:55 10° NNE
BlueWalker 3 4.3 02:41:16 11° ENE 02:41:16 11° ENE 02:41:26 10° ENE
SL-27 R/B 2.0 02:38:03 47° SW 02:38:40 69° WNW 02:41:26 10° NNE
SL-14 R/B 3.5 02:37:34 22° SSW 02:39:51 62° W 02:43:37 10° N
Cosmos 2315 Rocket 4.1 02:34:08 10° N 02:40:32 83° W 02:44:42 23° S
Cosmos 1707 Rocket 3.6 02:38:10 23° SSW 02:40:53 82° W 02:45:20 10° N
COSMOS 2455 4.4 02:41:38 16° ESE 02:41:38 16° ESE 02:45:09 10° ENE
SJ 16-02 1.3 02:40:03 34° S 02:41:44 60° ESE 02:46:00 10° NNE
Cosmos 1850 Rocket 4.4 02:39:36 10° SSW 02:44:47 64° WNW 02:49:58 10° NNE
Landsat 4 4.4 02:44:04 28° SSW 02:45:21 41° W 02:48:39 10° NNW
ATLAS 2AS CENTAUR R/B 2.7 02:39:29 10° NNW 02:46:18 72° NE 02:50:03 28° SE
Meteor 1-4 Rocket 2.1 02:49:24 60° ENE 02:49:24 60° ENE 02:52:11 10° NNE
Cosmos 2360 Rocket 2.1 02:43:53 10° NNW 02:49:35 87° ENE 02:52:15 33° SSE
Cosmos 1346 Rocket 2.8 02:46:12 10° NNW 02:50:04 72° W 02:51:15 41° S
Cosmos 1932 4.4 02:46:55 11° SSW 02:52:59 72° ESE 02:59:15 10° NE
RESURS DK-1 3.0 02:50:27 10° NW 02:54:21 46° WSW 02:55:35 34° SSW
SPOT 3 Rocket 4.2 02:51:36 22° SSW 02:54:38 48° W 02:59:38 10° NNW
ARIANE 5 R/B 3.7 02:53:44 26° E 02:54:56 30° ENE 02:58:44 10° N
SL-16 R/B 3.2 02:55:03 10° NW 03:00:12 37° WSW 03:03:14 21° SSW
Cosmos 968 Rocket 3.8 02:57:17 14° SSW 03:01:35 65° WNW 03:06:46 10° NNE
USA 281 3.7 02:58:49 25° ESE 03:02:27 49° ENE 03:08:45 10° NNW
Cosmos 2333 Rocket 2.2 02:56:53 10° NNW 03:02:40 82° WSW 03:05:07 36° SSE
Meteor 2-20 4.5 02:57:41 10° N 03:03:51 77° W 03:07:03 30° S
Cosmos 1733 Rocket 3.6 02:59:45 10° NNW 03:04:04 53° W 03:05:48 32° SSW
SeaSat 1 3.9 03:02:21 19° SSW 03:04:44 27° WSW 03:08:56 10° NW
Cosmos 1455 2.3 03:06:57 10° N 03:10:22 50° ENE 03:10:22 50° ENE
Okean 1-7 2.9 03:11:24 49° S 03:12:33 89° E 03:16:54 10° N
Cosmos 839 Rocket 4.1 03:05:59 10° NNW 03:12:48 78° NE 03:15:33 35° SE
Atlas Centaur 2 3.8 03:06:30 10° WSW 03:13:16 28° SSW 03:14:18 27° S
Cosmos 1814 Rocket 4.0 03:08:13 10° NNW 03:13:34 85° WSW 03:15:23 43° SSE
Cosmos 1242 Rocket 3.7 03:15:36 25° NE 03:15:36 25° NE 03:17:03 10° NNE
GP-B 3.3 03:11:10 10° NNE 03:15:29 51° E 03:16:05 47° ESE
Cosmos 1908 Rocket 3.5 03:13:31 10° N 03:17:51 66° E 03:18:33 55° SE
GENESIS II 4.5 03:20:55 48° ENE 03:20:55 48° ENE 03:23:49 10° NE
Cosmos 1782 Rocket 4.4 03:16:34 10° N 03:20:34 35° ENE 03:21:05 34° E
Cosmos 2237 Rocket 4.2 03:19:49 10° N 03:23:46 19° NE 03:27:33 10° E
Cosmos 1745 Rocket 4.2 03:24:05 38° SSE 03:26:13 56° E 03:32:25 10° NNE
Cosmos 2322 4.1 03:20:57 10° NNW 03:26:31 53° ENE 03:28:35 35° ESE
Cosmos 2227 Rocket 4.4 03:28:54 10° E 03:28:54 10° E 03:29:40 10° E
Cosmos 1408 4.3 03:31:03 18° NE 03:31:03 18° NE 03:32:14 10° NNE
SL-4 R/B 4.1 03:27:41 10° NW 03:31:03 25° NNE 03:34:34 10° ENE
Cosmos 2333 4.4 03:26:43 10° NNW 03:32:24 61° WSW 03:34:15 41° S
Okean 2 4.1 03:36:15 38° WSW 03:37:11 46° WNW 03:41:04 10° N
Nadezhda 1 Rocket 4.0 03:31:29 10° N 03:37:47 70° E 03:39:51 43° SSE
H-2A R/B 4.5 03:37:30 10° ENE 03:37:37 10° E 03:37:37 10° E
Cosmos 1300 Rocket 4.0 03:35:00 10° N 03:39:09 46° ENE 03:39:27 45° E
Cosmos 1386 Rocket 4.4 03:37:50 41° S 03:40:14 84° E 03:46:29 10° N
Cosmos 2322 Rocket 3.6 03:38:19 10° NW 03:42:58 27° WSW 03:44:58 22° SW
ATLAS CENTAUR R/B 4.0 03:41:19 10° WNW 03:43:24 15° NW 03:45:31 10° N
CENTAUR R/B 4.3 03:46:31 13° E 03:46:31 13° E 03:48:35 10° ENE
ALOS 2 3.5 03:45:46 34° E 03:46:22 36° ENE 03:50:23 10° N
Cosmos 2297 Rocket 3.0 03:47:54 32° ESE 03:48:06 32° ESE 03:53:04 10° NE
PSLV R/B 3.8 03:45:49 10° N 03:49:48 76° WNW 03:50:01 73° WSW
Cosmos 1315 Rocket 4.3 03:49:43 26° WSW 03:50:53 31° WNW 03:54:28 10° N
Cosmos 1953 3.2 03:51:00 10° NNW 03:54:31 36° W 03:54:38 36° W
Cosmos 1703 Rocket 4.3 03:55:52 38° WSW 03:56:55 46° WNW 04:01:14 10° N
Meteor 2-5 Rocket 4.2 03:59:22 42° SE 04:00:30 47° E 04:06:06 10° NNE
Cosmos 1486 Rocket 3.8 04:06:10 64° S 04:06:54 77° ESE 04:12:07 10° NNE
COSMOS 2428 2.6 04:02:12 10° NNW 04:07:56 89° ENE 04:09:13 56° SSE
Cosmos 2219 Rocket 2.8 04:03:32 10° NW 04:08:50 42° WSW 04:09:56 38° SW
Cosmos 2242 Rocket 3.5 04:10:52 80° S 04:11:08 89° E 04:15:43 10° N
Cosmos 371 Rocket 3.1 04:12:01 71° SE 04:12:14 72° ESE 04:17:03 10° NNE
BlueWalker 3 2.8 04:15:31 40° WNW 04:16:18 47° NNW 04:19:56 10° NE
SJ 16-02 4.0 04:18:15 10° W 04:20:29 14° WNW 04:22:45 10° NNW
Cosmos 405 Rocket 3.8 04:17:50 10° N 04:20:57 35° ENE 04:20:57 35° ENE
Cosmos 1354 Rocket 4.4 04:21:25 47° ESE 04:21:41 48° ESE 04:26:47 10° NNE
Cosmos 2263 Rocket 4.4 04:22:09 11° E 04:22:19 11° E 04:23:40 10° E
H-2A R/B 2.9 04:22:54 53° W 04:22:54 53° W 04:27:03 10° NNW
NOSS 0 Rocket 3.9 04:18:01 10° NNW 04:24:18 82° ENE 04:26:04 50° SE
Cosmos 1709 Rocket 4.1 04:23:45 46° SSW 04:25:46 76° W 04:32:10 10° N
COSMOS 2455 2.8 04:24:43 44° SW 04:26:46 80° WNW 04:32:50 10° NNE
CZ-4C R/B 1.6 04:28:06 73° SW 04:28:32 85° NW 04:33:56 10° NE
ARIANE 5 R/B 4.1 04:31:12 24° W 04:31:19 24° W 04:34:51 10° NW
Spot 4 4.1 04:31:54 53° WSW 04:32:13 54° W 04:36:56 10° NNW
Cosmos 2360 Rocket 4.3 04:30:22 10° WNW 04:32:42 13° W 04:34:00 12° WSW
ATLAS 2AS CENTAUR R/B 4.0 04:31:33 10° WNW 04:36:28 22° WSW 04:37:28 21° WSW
Cosmos 1703 3.9 04:40:37 47° NW 04:40:37 47° NW 04:43:41 10° N
USA 281 4.1 04:45:41 30° SW 04:47:05 33° WSW 04:52:56 10° NW
Cosmos 1892 3.6 04:50:46 39° NE 04:50:46 39° NE 04:53:14 10° NNE
PSLV R/B 3.5 04:45:59 10° N 04:50:04 78° NW 04:50:04 78° NW
Okean 1 Rocket 3.9 04:46:30 10° N 04:50:34 38° ENE 04:50:52 38° E
Cosmos 2098 Rocket 4.0 04:45:37 10° N 04:52:15 79° W 04:53:52 53° SSW
CZ-2C R/B 4.5 04:50:22 27° WSW 04:52:41 42° WNW 05:09:47 10° N
Cosmos 2154 Rocket 4.4 04:54:44 42° SE 04:56:18 51° E 05:02:20 10° NNE
SL-16 R/B 3.7 04:55:59 10° N 05:01:02 31° NE 05:04:46 16° ESE
Cosmos 304 Rocket 4.5 05:01:27 40° W 05:02:20 45° WNW 05:06:55 10° N
Cosmos 332 Rocket 3.6 05:05:28 78° S 05:05:46 84° ESE 05:10:40 10° NNE
Cosmos 2237 Rocket 2.1 05:02:48 10° NNW 05:08:28 76° WSW 05:09:21 62° S
Cosmos 990 Rocket 4.2 05:08:21 52° ESE 05:08:42 53° ESE 05:13:41 10° NNE
SL-4 R/B 2.2 05:06:12 10° NW 05:10:19 71° NNE 05:10:26 70° NE
Meteor 1-24 Rocket 4.4 05:08:46 37° WSW 05:10:23 46° WNW 05:15:50 10° N
Cosmos 773 Rocket 4.3 05:06:18 10° NNW 05:11:15 49° WSW 05:11:26 49° WSW
Cosmos 2227 Rocket 2.1 05:10:41 62° S 05:11:41 82° ESE 05:17:22 10° NNE
H-2A R/B 2.1 05:10:14 10° N 05:14:25 66° WNW 05:14:25 66° WNW
Cosmos 2084 Rocket 3.8 05:18:12 55° WNW 05:18:28 57° NW 05:22:35 10° NNE
Cosmos 2151 Rocket 3.9 05:16:59 10° NNW 05:21:05 53° W 05:21:05 53° W
Cosmos 1980 3.8 05:15:58 10° NNW 05:21:31 55° WSW 05:22:05 53° SW
Cosmos 1825 3.1 05:23:12 40° NNW 05:23:12 40° NNW 05:25:42 10° N
ALOS 2 4.3 05:23:09 21° W 05:23:09 21° W 05:26:09 10° NW
GEOS 3 Rocket 3.5 05:18:53 10° NE 05:24:03 79° NW 05:25:12 54° SW
Cosmos 1538 Rocket 4.5 05:21:11 10° NNW 05:26:18 54° ENE 05:28:00 38° ESE
Cosmos 1455 Rocket 3.9 05:23:42 10° N 05:27:55 40° ENE 05:28:40 37° ESE
Okean 2 Rocket 3.5 05:23:41 10° NNW 05:27:55 50° W 05:27:55 50° W
Cosmos 1174 3.9 05:24:10 10° NNW 05:28:34 72° WNW 05:28:34 72° WNW
Cosmos 2181 Rocket 4.4 05:24:06 10° NNW 05:30:00 48° W 05:31:22 41° SW
BREEZE-M DEB (TANK) 3.4 05:25:32 10° WNW 05:31:52 45° N 05:33:31 21° ENE
Cosmos 2297 Rocket 3.2 05:29:40 26° WSW 05:32:01 38° WNW 05:37:16 10° N
Cosmos 1674 Rocket 4.3 05:32:54 39° W 05:33:04 40° WNW 05:37:10 10° N
Cosmos 2219 3.2 05:33:16 56° SSE 05:34:17 69° ESE 05:39:53 10° NNE
CENTAUR R/B 2.3 05:33:38 53° SW 05:35:07 90° NW 05:41:58 10° NE
Cosmos 2074 Rocket 4.2 05:38:32 43° SW 05:40:18 58° W 05:46:26 10° N
Cosmos 1025 Rocket 2.9 05:40:57 82° WSW 05:41:03 83° W 05:45:23 10° N
Aureole 1 Rocket 3.1 05:42:32 53° ENE 05:42:32 53° ENE 05:46:05 10° NNE
ADEOS II 4.4 05:48:18 10° ENE 05:50:29 12° E 05:52:40 10° ESE
TIMED 4.3 05:51:00 76° SE 05:51:08 77° ESE 05:55:28 10° NNE
CRYOSAT 2 4.4 05:49:56 10° N 05:54:49 69° E 05:55:48 54° SSE
Helios 1A Rocket 2.9 05:58:05 61° E 05:58:17 63° ENE 06:02:04 10° N
Cosmos 1937 Rocket 4.0 05:58:26 42° SE 05:59:39 51° ESE 06:04:44 10° NNE
Cosmos 1461 3.5 06:00:58 42° ESE 06:00:58 42° ESE 06:04:24 10° NE
Cosmos 1898 Rocket 3.4 06:01:58 55° S 06:03:05 76° ESE 06:08:15 10° NNE
MOZ.5/SAFIR/RUBIN 5/SL-8 4.5 06:01:24 31° SE 06:03:15 49° ENE 06:07:43 10° N
Resurs 1-4 Rocket 3.6 05:59:37 10° NE 06:04:04 27° E 06:06:19 20° SE
Cosmos 2263 Rocket 2.1 06:03:48 51° SSW 06:05:17 85° ESE 06:10:53 10° NNE
Elektron 3 4.2 06:12:53 10° NW 06:17:29 65° W 06:17:29 65° W
CZ-4C R/B 4.3 06:14:35 10° WNW 06:18:00 18° NNW 06:21:56 10° NNE
Nadezhda 3 Rocket 4.5 06:12:37 10° NNW 06:18:30 44° W 06:20:16 36° SW
NOSS 3-2 (A) 3.3 06:18:58 39° WSW 06:20:54 66° NW 06:26:55 10° NNE
Cosmos 2218 Rocket 4.1 06:18:48 35° S 06:21:33 72° E 06:27:43 10° NNE
Cosmos 1844 Rocket 4.3 06:22:41 17° SE 06:25:19 25° ESE 06:29:44 10° NE
NOSS 3-2 (C) 3.2 06:25:20 43° S 06:26:53 64° ESE 06:32:46 10° NE
Cosmos 2366 rocket 4.0 06:25:40 36° S 06:28:28 84° E 06:34:44 10° N
Cosmos 1869 3.0 06:27:11 10° N 06:30:53 80° E 06:31:19 67° SSE
USA 267 4.3 06:28:22 10° ENE 06:34:01 31° SE 06:36:41 23° SSE
Cosmos 1680 Rocket 3.6 06:31:24 10° NNW 06:36:37 72° ENE 06:40:02 22° SSE
Cosmos 1818 3.7 06:33:01 10° NNW 06:38:32 76° ENE 06:43:58 10° SE
Cosmos 2112 Rocket 4.3 06:33:41 10° NNW 06:38:51 64° ENE 06:42:52 17° SSE
Cosmos 1437 Rocket 4.0 06:37:53 25° SE 06:39:11 32° E 06:42:36 10° NNE
Cosmos 1544 Rocket 3.5 06:35:09 10° N 06:39:36 89° ENE 06:41:02 43° S
MSX 4.0 06:33:58 10° NNE 06:39:41 66° ESE 06:42:31 31° S
Cosmos 2228 3.1 06:39:22 10° N 06:43:41 71° E 06:45:26 34° SSE
SL-16 R/B 2.7 06:39:56 10° NW 06:45:13 41° WSW 06:46:35 35° SW
BREEZE-M DEB (TANK) 1.7 06:49:10 61° ESE 06:49:10 61° ESE 06:52:34 10° SE
Cosmos 1975 Rocket 4.2 06:49:56 26° W 06:50:49 29° WNW 06:54:39 10° NNW
SL-16 R/B 3.7 06:46:35 10° SE 06:52:21 41° ENE 06:58:07 10° N
Cosmos 2082 4.4 06:51:06 26° WSW 06:53:45 43° WNW 06:59:06 10° NNE
IDEFIX/ARIANE 42P 2.5 06:49:50 10° N 06:55:05 79° WNW 06:57:28 34° SSW
Cosmos 2227 Rocket 4.3 06:52:41 10° W 06:56:26 18° NW 07:00:12 10° N
H-2A R/B 3.3 06:54:44 10° N 06:58:43 76° WNW 06:59:56 43° SSW
CZ-2C R/B 2.6 06:55:47 22° SSE 06:59:17 88° ENE 07:04:41 10° NNW
SL-8 Rocket 4.4 06:57:09 29° SW 06:59:58 48° WNW 07:05:57 10° N
Cosmos 1943 3.2 06:54:30 10° NNW 07:00:09 83° ENE 07:05:46 10° SSE
CZ-2C R/B 3.2 06:55:35 10° NNE 07:00:59 70° ESE 07:03:51 27° S
CZ-2D R/B 2.1 06:59:25 10° NNE 07:04:47 89° E 07:07:38 28° SSW
FENGYUN 3A 4.0 07:02:29 10° NNE 07:07:50 63° ESE 07:11:22 21° S
Cosmos 1606 Rocket 4.2 07:10:45 10° N 07:15:08 55° E 07:19:15 11° SSE
Cosmos 921 Rocket 3.7 07:11:59 10° N 07:16:07 51° ENE 07:20:09 10° SE
ASTEX 1 3.9 07:12:56 12° SSE 07:17:24 59° E 07:22:12 10° N
GRACE-FO 1 4.4 07:17:06 33° S 07:18:36 89° W 07:22:09 10° N
GRACE-FO 2 4.4 07:17:33 33° S 07:19:01 87° W 07:22:35 10° N
Cosmos 1606 4.0 07:16:57 10° NW 07:19:46 22° W 07:19:53 22° W
Cosmos 1536 Rocket 3.9 07:18:23 30° SW 07:20:17 53° W 07:24:38 10° N
Cosmos 1727 Rocket 4.0 07:14:06 10° N 07:20:26 77° W 07:25:41 16° S
Cosmos 2239 Rocket 4.5 07:16:20 20° S 07:20:50 84° E 07:27:00 10° N
NPP 4.1 07:16:36 10° N 07:21:46 48° WNW 07:24:45 24° SW
Cosmos 1867 3.6 07:20:35 26° SSW 07:23:45 86° ESE 07:29:16 10° NE
CENTAUR R/B 4.4 07:21:58 10° W 07:26:52 24° NNW 07:32:38 10° NNE
Cosmos 2227 4.5 07:24:37 24° SW 07:28:03 59° WNW 07:33:46 10° NNE
Cosmos 494 Rocket 4.1 07:24:22 10° NNW 07:29:37 81° ENE 07:34:52 10° SSE
Cosmos 1726 Rocket 4.1 07:26:15 10° N 07:30:40 60° E 07:35:00 10° SSE
ADEOS II 2.0 07:25:26 10° NNE 07:30:42 81° WNW 07:34:18 21° SSW
USA 238 DEB 3.5 07:28:50 22° SW 07:32:59 83° NW 07:39:42 10° NE
USA 238 3.5 07:28:52 22° SW 07:33:02 84° NW 07:39:45 10° NE
Cosmos 1000 Rocket 4.5 07:28:20 10° N 07:34:39 85° W 07:40:52 10° S
Cosmos 1812 3.9 07:33:22 10° N 07:36:45 38° ENE 07:40:05 10° SSE
Cosmos 1844 3.8 07:33:31 20° SSW 07:37:37 85° ESE 07:43:27 10° NNE
Cosmos 2058 4.0 07:36:39 10° SSE 07:40:26 40° E 07:44:15 10° NNE
Iridium 2 3.1 07:39:24 24° SSE 07:40:37 55° E 07:43:03 10° NNE
Resurs 1-4 Rocket 2.8 07:39:04 10° N 07:43:56 39° WNW 07:47:22 18° SW
SAR-Lupe-4 3.8 07:42:02 10° NNE 07:45:36 63° ESE 07:48:22 15° S
Iridium 4 Rocket 4.2 07:43:05 10° N 07:47:24 47° E 07:52:04 10° SSE
ATLAS 5 CENTAUR R/B 3.5 07:46:26 10° SE 07:47:53 12° ESE 07:49:23 10° E
Cosmos 2263 Rocket 4.2 07:46:26 10° W 07:49:57 17° NW 07:53:27 10° N
UNK 3.9 07:49:39 10° SSE 07:54:14 79° ENE 07:58:50 10° N
AQUA 4.1 07:51:46 10° N 07:56:22 54° WNW 08:00:01 16° SW
Meteor 1-28 Rocket 3.7 08:01:25 15° SSW 08:03:55 36° W 08:07:14 10° NNW
Cosmos 2058 Rocket 3.2 08:04:18 10° N 08:08:46 82° E 08:13:09 10° S
Cosmos 1844 Rocket 3.2 08:04:20 14° SW 08:08:51 48° WNW 08:14:15 10° NNE
ALOS 2.5 08:04:47 10° N 08:09:18 54° WNW 08:13:24 12° SSW
Cosmos 1892 Rocket 3.8 08:05:35 13° SSW 08:09:20 56° W 08:13:42 10° N
Delta 2 Rocket 4.3 08:07:47 14° WSW 08:10:23 26° S 08:14:01 10° SE
METEOR-M 4.4 08:05:25 10° NNE 08:10:46 71° ESE 08:16:05 10° S
Cosmos 1544 2.5 08:11:46 10° S 08:14:21 67° E 08:16:58 10° NNE
Cosmos 1607 3.9 08:08:05 10° NW 08:14:28 74° WSW 08:20:42 10° SSE
NOSS 2-2 (C) 4.0 08:13:42 10° S 08:16:50 35° ESE 08:19:42 10° NE
USA 267 3.4 08:10:51 10° NE 08:17:23 77° NW 08:23:53 10° WSW
Alouette 2 Rocket 3.8 08:14:22 10° SSW 08:19:08 53° WNW 08:22:50 10° N
Cosmos 1605 Rocket 4.0 08:14:07 10° S 08:20:19 89° E 08:26:30 10° N
CZ-4 R/B 3.9 08:24:44 10° NNE 08:29:40 85° WNW 08:34:39 10° SSW
NOSS 2-3 (C) 4.4 08:27:37 10° S 08:30:58 35° ESE 08:34:27 10° NE
Cosmos 2278 Rocket 4.3 08:26:58 10° SSE 08:31:18 23° E 08:35:39 10° NE
H-2A R/B 3.9 08:27:08 10° NE 08:31:47 30° E 08:36:17 10° SSE
SL-16 R/B 3.3 08:30:23 10° SSW 08:35:57 34° W 08:41:33 10° NNW
Cosmos 1626 Rocket 3.6 08:31:44 10° S 08:36:11 90° W 08:40:37 10° N
IRS-1D 3.9 08:33:31 10° NNE 08:38:42 69° ESE 08:43:43 10° S
SWAS 4.5 08:39:28 10° SSW 08:43:38 84° ESE 08:47:51 10° NNE
CZ-2D R/B 4.1 08:41:30 10° NNW 08:43:59 13° WNW 08:46:28 10° W
SEDSat Delta rocket 4.5 08:41:46 10° SW 08:44:31 18° S 08:47:16 10° SE
Cosmos 1862 4.3 08:42:09 10° SSE 08:45:47 46° E 08:49:27 10° NNE
